7 * 24
多渠道服务支持
TIANMU-1 15(天目一号气象星座15星)是中国研制的商用气象卫星,于北京时间2024年1月5日发射,属于中国“天目一号”气象星座组网卫星。该卫星星座可兼容北斗、GPS等全球导航系统,能对海洋、大气、电离层环境开展全天候连续观测,具备精度高、垂直分辨率高的特点,将为商业气象观测服务提供数据支撑,这也是中国航天2024年完成的首次发射任务。
中国
(CN)
| 数据来源 | 国际轨道数据 |
| 星历时间: | 2026-03-13T22:09:11+0800 12小时前 查看轨道信息 |
| 半长轴: | 6866.233km |
| 偏心率: | 0.0006363 |
| 轨道倾角: | 97.468° |
| 近地点辐角 | 335.473° |
| 升交点赤经 | 258.823° |
| 平近点角 | 24.620° |
| 近地点: | 483.727km |
| 远地点: | 492.465km |
| 周期: | 94.371分钟 |
| 每日圈数: | 15.258961 |